FW0152 North Kingstown RI US current weather conditions

sailwx.info

Wind from 289

Air temperature 0.6° C
Dewpoint -34.7° C

Last reported at 2019-Dec-12 18:52 UTC.
Time now 2019-Dec-12 19:25 UTC

Location: N 41°38' W 071°26'.
View on Google Maps.

See reports from other nearby stations

  
Tides and Currents Weather Stations Pressure Air Temp Water Temp Dewpoint Dewpoint Depression Visibility Wind Speed Wind Dir Waves Ship Positions
date/time (UTC)wind fromknots sea level pressurealtimeterstation pressurevisibilityair tempwater tempwave heightnotes
2019-Dec-12 18:52 289 0.6
2019-Dec-12 18:17 271 0.6
2019-Dec-12 18:10 152 0.6
2019-Dec-12 18:03 271 0.6
2019-Dec-12 17:56 168 0.6
2019-Dec-12 17:42 090 -0.0
2019-Dec-12 17:35 308 -0.0
2019-Dec-12 17:28 190 -0.0
2019-Dec-12 17:21 153 -0.0
2019-Dec-12 17:07 286 -0.0
2019-Dec-12 17:00 096 -0.0
2019-Dec-12 16:39 307 -0.6
2019-Dec-12 16:32 129 -0.6
2019-Dec-12 16:25 018 -0.6
2019-Dec-12 16:18 318 -0.6
2019-Dec-12 01:57 182 -3.9
2019-Dec-12 01:36 174 -4.4
2019-Dec-12 01:29 158 -4.4
2019-Dec-12 01:08 176 -4.4
2019-Dec-12 00:47 192 -3.9
2019-Dec-12 00:40 202 -3.9
2019-Dec-12 00:19 203 -3.3
2019-Dec-11 23:58 202 -3.3
2019-Dec-11 23:44 211 -3.3
2019-Dec-11 23:37 207 -3.3
2019-Dec-11 23:16 203 -2.8
2019-Dec-11 22:41 210 -2.8
2019-Dec-11 22:34 216 -2.2
2019-Dec-11 22:20 208 -2.2
2019-Dec-11 22:13 190 -1.7
2019-Dec-11 21:59 180 -1.7
2019-Dec-11 21:52 235 -1.1
2019-Dec-11 21:45 240 -1.1
2019-Dec-11 21:38 214 -1.1
2019-Dec-11 21:31 240 -1.1
2019-Dec-11 21:24 266 -0.6
2019-Dec-11 21:17 221 -0.6
2019-Dec-11 21:03 217 -0.6
2019-Dec-11 20:42 216 -0.0
2019-Dec-11 20:35 214 -0.0
2019-Dec-11 20:28 220 0.6
2019-Dec-11 20:21 236 0.6
2019-Dec-11 20:00 211 0.6
2019-Dec-11 19:46 242 0.6
2019-Dec-11 19:39 269 0.6
2019-Dec-11 19:18 180 0.6
2019-Dec-11 19:11 015 0.6
2019-Dec-11 19:04 116 0.6
2019-Dec-11 18:57 239 0.6
2019-Dec-11 18:43 210 0.6
2019-Dec-11 18:36 166 0.6
2019-Dec-11 18:22 227 0.6
2019-Dec-11 18:01 221 0.6
2019-Dec-11 17:54 220 -0.0
2019-Dec-11 17:40 218 -0.0
2019-Dec-11 17:33 208 -0.0
2019-Dec-11 17:19 212 -0.0
2019-Dec-11 17:12 214 -0.0
2019-Dec-11 16:58 235 -0.6
2019-Dec-11 16:44 172 -1.1
2019-Dec-11 16:37 305 -1.1
2019-Dec-11 16:30 209 -1.1
2019-Dec-11 16:16 310 -1.7
2019-Dec-11 16:09 197 -1.1
2019-Dec-11 16:02 259 -1.1
2019-Dec-11 15:55 234 -1.1
2019-Dec-11 15:48 203 -1.1
2019-Dec-11 15:41 236 -1.1
2019-Dec-11 15:34 317 -1.1
2019-Dec-11 15:13 216 -1.1
2019-Dec-11 15:06 209 -1.1
2019-Dec-11 14:45 193 -1.7
2019-Dec-11 14:38 217 -1.7
2019-Dec-11 14:31 349 -1.1
2019-Dec-11 14:17 214 -1.1
2019-Dec-11 14:10 231 -1.1
2019-Dec-11 13:56 121 -1.1
2019-Dec-11 13:35 171 -0.6
2019-Dec-11 13:28 193 -0.6
2019-Dec-11 13:07 291 -0.6
2019-Dec-11 12:53 262 -0.6
2019-Dec-11 12:46 302 -0.6
2019-Dec-11 12:39 244 -0.6
2019-Dec-11 02:23 246 7.2
2019-Dec-11 02:16 018 7.2
2019-Dec-11 01:48 017 4 gusting 6 7.8
2019-Dec-11 01:27 170 10.0
2019-Dec-11 01:20 223 0 gusting 2 10.6
2019-Dec-11 00:59 241 11.7
2019-Dec-11 00:45 203 11.7
2019-Dec-11 00:38 200 11.7
2019-Dec-11 00:17 183 12.2
2019-Dec-11 00:10 221 12.2
2019-Dec-11 00:03 303 2 gusting 4 12.2
2019-Dec-10 23:49 234 12.2
2019-Dec-10 22:18 213 12.2
2019-Dec-10 22:11 147 12.2
2019-Dec-10 21:43 227 12.8
2019-Dec-10 21:37 225 12.8
2019-Dec-10 21:29 191 12.8
2019-Dec-10 21:22 201 1 gusting 2 12.8
2019-Dec-10 21:15 318 12.8
2019-Dec-10 21:01 219 0 gusting 2 12.8
2019-Dec-10 20:33 212 0 gusting 2 12.8
2019-Dec-10 20:26 187 12.8
2019-Dec-10 20:19 160 3 gusting 4 12.8
2019-Dec-10 20:05 171 12.8
2019-Dec-10 19:58 210 12.8
2019-Dec-10 19:51 215 13.3
2019-Dec-10 19:37 225 13.3
2019-Dec-10 19:30 212 13.3
2019-Dec-10 19:23 240 3 gusting 6 13.3
2019-Dec-10 19:16 188 13.3
2019-Dec-10 19:08 177 13.3